TimeCST,TemperatureF,Dew PointF,Humidity,Sea Level PressureIn,VisibilityMPH,Wind Direction,Wind SpeedMPH,Gust SpeedMPH,PrecipitationIn,Events,Conditions,WindDirDegrees,DateUTC
12:52 AM,45.0,44.1,97,29.93,0.2,Calm,Calm,-,N/A,Fog,Fog,0,2012-12-02 06:52:00
1:52 AM,44.1,43.0,96,29.94,0.2,Calm,Calm,-,N/A,Fog,Fog,0,2012-12-02 07:52:00
2:52 AM,43.0,42.1,97,29.95,0.2,WSW,3.5,-,N/A,Fog,Fog,250,2012-12-02 08:52:00
3:52 AM,41.0,41.0,100,29.96,0.5,SW,3.5,-,N/A,Fog,Fog,220,2012-12-02 09:52:00
4:23 AM,39.2,37.4,93,29.96,0.5,WSW,3.5,-,N/A,Fog,Fog,240,2012-12-02 10:23:00
4:32 AM,39.2,39.2,100,29.96,2.0,SW,4.6,-,N/A,,Mostly Cloudy,230,2012-12-02 10:32:00
4:35 AM,39.2,39.2,100,29.96,3.0,SW,4.6,-,N/A,,Scattered Clouds,230,2012-12-02 10:35:00
4:52 AM,39.9,39.0,97,29.97,3.0,Calm,Calm,-,N/A,,Clear,0,2012-12-02 10:52:00
5:00 AM,37.4,37.4,100,29.97,1.2,Calm,Calm,-,N/A,,Clear,0,2012-12-02 11:00:00
5:06 AM,37.4,35.6,93,29.96,0.5,West,3.5,-,N/A,Fog,Fog,270,2012-12-02 11:06:00
5:13 AM,39.2,35.6,87,29.97,0.2,Calm,Calm,-,N/A,Fog,Fog,0,2012-12-02 11:13:00
5:25 AM,39.2,39.2,100,29.98,1.0,Calm,Calm,-,N/A,,Mist,0,2012-12-02 11:25:00
5:34 AM,35.6,35.6,100,29.98,0.2,Calm,Calm,-,N/A,Fog,Fog,0,2012-12-02 11:34:00
5:52 AM,36.0,35.1,97,29.99,0.2,Calm,Calm,-,N/A,Fog,Fog,0,2012-12-02 11:52:00
6:44 AM,35.6,35.6,100,30.00,0.5,WSW,4.6,-,N/A,Fog,Fog,250,2012-12-02 12:44:00
6:49 AM,37.4,35.6,93,30.00,1.2,SW,4.6,-,N/A,,Partly Cloudy,230,2012-12-02 12:49:00
6:52 AM,36.0,36.0,100,30.02,1.2,SSW,4.6,-,N/A,,Scattered Clouds,200,2012-12-02 12:52:00
6:59 AM,37.4,35.6,93,30.01,1.0,Calm,Calm,-,N/A,,Mist,0,2012-12-02 12:59:00
7:11 AM,35.6,33.8,93,30.01,0.8,Calm,Calm,-,N/A,Fog,Fog,0,2012-12-02 13:11:00
7:18 AM,35.6,33.8,93,30.02,0.2,Calm,Calm,-,N/A,Fog,Fog,0,2012-12-02 13:18:00
7:52 AM,34.0,33.1,96,30.04,0.5,Calm,Calm,-,N/A,Fog,Fog,0,2012-12-02 13:52:00
7:55 AM,35.6,33.8,93,30.02,0.2,ESE,3.5,-,N/A,Fog,Fog,120,2012-12-02 13:55:00
8:06 AM,35.6,33.8,93,30.01,0.5,Calm,Calm,-,N/A,Fog,Fog,0,2012-12-02 14:06:00
8:42 AM,37.4,37.4,100,30.02,0.2,Calm,Calm,-,N/A,Fog,Fog,0,2012-12-02 14:42:00
8:52 AM,39.0,39.0,100,30.05,0.2,SE,3.5,-,N/A,Fog,Fog,130,2012-12-02 14:52:00
8:59 AM,39.2,37.4,93,30.04,1.0,ESE,3.5,-,N/A,,Clear,120,2012-12-02 14:59:00
9:05 AM,39.2,37.4,93,30.03,3.0,Calm,Calm,-,N/A,,Clear,0,2012-12-02 15:05:00
9:52 AM,44.1,43.0,96,30.04,5.0,Calm,Calm,-,N/A,,Clear,0,2012-12-02 15:52:00
10:52 AM,53.1,46.0,77,30.03,9.0,Calm,Calm,-,N/A,,Clear,0,2012-12-02 16:52:00
11:52 AM,57.9,46.9,67,30.01,10.0,Calm,Calm,-,N/A,,Clear,0,2012-12-02 17:52:00
12:52 PM,63.0,46.9,56,29.96,10.0,Calm,Calm,-,N/A,,Clear,0,2012-12-02 18:52:00
1:52 PM,64.9,48.0,54,29.94,10.0,Calm,Calm,-,N/A,,Clear,0,2012-12-02 19:52:00
2:52 PM,70.0,39.9,33,29.90,10.0,SSE,6.9,-,N/A,,Clear,160,2012-12-02 20:52:00
3:52 PM,69.1,39.0,33,29.89,10.0,South,4.6,-,N/A,,Clear,170,2012-12-02 21:52:00
4:52 PM,63.0,39.9,43,29.87,10.0,Calm,Calm,-,N/A,,Clear,0,2012-12-02 22:52:00
5:52 PM,57.0,41.0,55,29.87,10.0,NNE,3.5,-,N/A,,Clear,30,2012-12-02 23:52:00
6:52 PM,55.0,44.1,67,29.88,10.0,Calm,Calm,-,N/A,,Clear,0,2012-12-03 00:52:00
7:52 PM,53.1,46.0,77,29.86,10.0,Calm,Calm,-,N/A,,Clear,0,2012-12-03 01:52:00
8:52 PM,54.0,48.9,83,29.84,10.0,Calm,Calm,-,N/A,,Clear,0,2012-12-03 02:52:00
9:52 PM,53.1,48.9,86,29.82,10.0,Calm,Calm,-,N/A,,Clear,0,2012-12-03 03:52:00
10:52 PM,45.0,42.1,90,29.79,8.0,Calm,Calm,-,N/A,,Clear,0,2012-12-03 04:52:00
11:52 PM,51.1,46.0,83,29.75,10.0,SSW,3.5,-,N/A,,Clear,210,2012-12-03 05:52:00